STARLINK-5102

decayed
NORAD ID: 55645 Int'l Des: 2023-021 Owner: SPXS Country: US Constellation: starlink
LEOCIRCULAR
Gruppe

Über STARLINK-5102

Beschreibung wird geladen...

Höhenverlauf

Altitude vs Time

uPlot chart will show altitude changes over time

Zweizeiliger Elementsatz

1 55645U 23021T 24234.25495009 .22460887 43146-5 34243-2 0 9990
2 55645 69.9874 157.8125 0010851 243.3747 275.9543 16.33757733 84095
Epoch: 21. Aug. 2024 • Age: 9367 hours

Aktueller Status

Position data unavailable
Startdatum 17. Feb. 2023
Alter 2.5 years
Verglühungsdatum 21. Aug. 2024
Typ internet

Technische Details

Klassifizierung Payload
Masse 305.00 kg
Trockenmasse 290.00 kg
Gesamtmasse 305.00 kg
Länge 0.20 m
Durchmesser 2.80 m
Spannweite 9.00 m
Form Box + pan
Hersteller SPXS
Bus-Typ Starlink
Phasenstatus Unknown Transfer Status
Besitzer/Staat SPXS/US

Große Konstellationen

Loading constellations...